A/2020 M4

Japanese version
Home page
Updated on July 19, 2020

---------------------------------------------------------------------

* Profile

Discovery Date June 17, 2020
Magnitude 21.98 mag
Discoverer Pan-STARRS 2 (Haleakala)

* Orbital Elements

Epoch 2020 Nov. 7.0 TT = JDT 2459160.5                                          
T 2020 Nov. 23.73032 TT                                 Veres                   
q   5.9523866            (2000.0)            P               Q                  
z  +0.0001792      Peri.  104.63483     -0.42706215     -0.90173574             
 +/-0.0003571      Node   348.63162     -0.90361078     +0.42287469             
e   0.9989334      Incl.  160.12554     -0.03324879     +0.08971985             
H   14.5                                                                        
From 45 observations 2020 June 13-July 13, mean residual 0".3.                  

* Magnitudes Graph

        H = 14.5  G = 0.15

---------------------------------------------------------------------

The orbital elements are published on M.P.E.C. 2020-O13.
The magnitudes graphs are made with Comet for Windows.

---------------------------------------------------------------------

Copyright(C) Seiichi Yoshida (comet@aerith.net). All rights reserved.